Station Historical Data
Daily Summary for April 3, 2017 Units:  English    Metric   Both
Next Day »
Daily Weekly Monthly Yearly Custom
  High: Low: Average:
Temperature: 65.0 °F 45.3 °F 54.2 °F
Dew Point: 42.8 °F 31.1 °F 37.1 °F
Humidity: 75% 31% 54%
Wind Speed: 11.0mph 0.0mph 1.5mph
Wind Gust: 16.0mph - -
Wind- - SSW
Pressure: 30.00 in 29.89 in -
Precipitation: 0.00 in    
Historical Graphs
 
 
Tabular Data for April 3, 2017
Time Temperature Dew Point Pressure Wind Wind Speed Wind Gust Humidity Rainfall Rate (Hourly) solar Conditions
00:01 53.2 °F 42.5 °F 29.92 in Calm   7.0 mph 67% 0.00 in 0.00 W/m2
00:06 53.1 °F 42.8 °F 29.93 in Calm   5.0 mph 68% 0.00 in 0.00 W/m2
00:11 53.0 °F 42.3 °F 29.93 in Calm     67% 0.00 in 0.00 W/m2
00:16 53.0 °F 42.3 °F 29.93 in Calm   4.0 mph 67% 0.00 in 0.00 W/m2
00:21 52.9 °F 42.3 °F 29.93 in ESE 2.0 mph 2.0 mph 67% 0.00 in 0.00 W/m2
00:26 52.8 °F 42.2 °F 29.92 in Calm     67% 0.00 in 0.00 W/m2
00:31 52.7 °F 42.1 °F 29.92 in Calm   2.0 mph 67% 0.00 in 0.00 W/m2
00:36 52.6 °F 41.6 °F 29.92 in Calm     66% 0.00 in 0.00 W/m2
00:41 52.4 °F 41.4 °F 29.92 in Calm     66% 0.00 in 0.00 W/m2
00:46 52.3 °F 41.7 °F 29.92 in Calm     67% 0.00 in 0.00 W/m2
00:51 52.2 °F 41.6 °F 29.92 in Calm     67% 0.00 in 0.00 W/m2
00:56 52.2 °F 41.6 °F 29.92 in ESE 1.0 mph 4.0 mph 67% 0.00 in 0.00 W/m2
01:01 52.0 °F 41.4 °F 29.92 in ESE 2.0 mph 5.0 mph 67% 0.00 in 0.00 W/m2
01:06 51.9 °F 41.3 °F 29.92 in Calm   4.0 mph 67% 0.00 in 0.00 W/m2
01:11 51.8 °F 41.2 °F 29.92 in ESE 4.0 mph 5.0 mph 67% 0.00 in 0.00 W/m2
01:16 51.7 °F 41.5 °F 29.92 in ESE 1.0 mph 7.0 mph 68% 0.00 in 0.00 W/m2
01:21 51.5 °F 41.3 °F 29.92 in ESE 1.0 mph 6.0 mph 68% 0.00 in 0.00 W/m2
01:26 51.3 °F 40.7 °F 29.91 in ESE 4.0 mph 6.0 mph 67% 0.00 in 0.00 W/m2
01:31 51.2 °F 41.0 °F 29.91 in Calm   7.0 mph 68% 0.00 in 0.00 W/m2
01:36 51.0 °F 40.8 °F 29.91 in ESE 8.0 mph 8.0 mph 68% 0.00 in 0.00 W/m2
01:41 50.8 °F 40.6 °F 29.91 in ESE 2.0 mph 2.0 mph 68% 0.00 in 0.00 W/m2
01:46 50.7 °F 40.9 °F 29.91 in ESE 5.0 mph 8.0 mph 69% 0.00 in 0.00 W/m2
01:51 50.6 °F 40.8 °F 29.91 in ESE 7.0 mph 7.0 mph 69% 0.00 in 0.00 W/m2
01:56 50.5 °F 40.3 °F 29.91 in ESE 4.0 mph 9.0 mph 68% 0.00 in 0.00 W/m2
02:01 50.5 °F 40.3 °F 29.90 in Calm   7.0 mph 68% 0.00 in 0.00 W/m2
02:06 50.4 °F 39.9 °F 29.91 in ESE 2.0 mph 8.0 mph 67% 0.00 in 0.00 W/m2
02:11 50.3 °F 39.8 °F 29.90 in ESE 2.0 mph 8.0 mph 67% 0.00 in 0.00 W/m2
02:16 50.3 °F 39.8 °F 29.90 in ESE 2.0 mph 5.0 mph 67% 0.00 in 0.00 W/m2
02:21 50.2 °F 40.1 °F 29.90 in Calm   7.0 mph 68% 0.00 in 0.00 W/m2
02:26 50.1 °F 40.0 °F 29.90 in ESE 2.0 mph 11.0 mph 68% 0.00 in 0.00 W/m2
02:31 50.0 °F 39.9 °F 29.90 in ESE 2.0 mph 8.0 mph 68% 0.00 in 0.00 W/m2
02:36 49.9 °F 39.4 °F 29.91 in ESE 4.0 mph 6.0 mph 67% 0.00 in 0.00 W/m2
02:41 49.9 °F 39.4 °F 29.91 in ESE 2.0 mph 6.0 mph 67% 0.00 in 0.00 W/m2
02:46 49.8 °F 39.7 °F 29.91 in ESE 2.0 mph 6.0 mph 68% 0.00 in 0.00 W/m2
02:51 49.7 °F 39.2 °F 29.90 in ESE 2.0 mph 7.0 mph 67% 0.00 in 0.00 W/m2
02:56 49.6 °F 39.1 °F 29.91 in Calm   7.0 mph 67% 0.00 in 0.00 W/m2
03:01 49.4 °F 38.9 °F 29.91 in Calm   5.0 mph 67% 0.00 in 0.00 W/m2
03:06 49.3 °F 38.4 °F 29.91 in ESE 1.0 mph 5.0 mph 66% 0.00 in 0.00 W/m2
03:11 49.2 °F 39.1 °F 29.91 in ESE 1.0 mph 7.0 mph 68% 0.00 in 0.00 W/m2
03:16 49.1 °F 39.0 °F 29.91 in ESE 2.0 mph 2.0 mph 68% 0.00 in 0.00 W/m2
03:21 49.0 °F 38.5 °F 29.90 in Calm   5.0 mph 67% 0.00 in 0.00 W/m2
03:22 49.0 °F 38.5 °F 29.90 in ESE 1.0 mph 5.0 mph 67% 0.00 in 0.00 W/m2
03:27 48.8 °F 38.7 °F 29.90 in Calm   5.0 mph 68% 0.00 in 0.00 W/m2
03:32 48.7 °F 38.6 °F 29.90 in Calm   5.0 mph 68% 0.00 in 0.00 W/m2
03:37 48.6 °F 38.5 °F 29.90 in ESE 6.0 mph 6.0 mph 68% 0.00 in 0.00 W/m2
03:42 48.5 °F 38.4 °F 29.90 in Calm   5.0 mph 68% 0.00 in 0.00 W/m2
03:47 48.3 °F 38.6 °F 29.90 in Calm   6.0 mph 69% 0.00 in 0.00 W/m2
03:52 48.2 °F 38.5 °F 29.90 in Calm   5.0 mph 69% 0.00 in 0.00 W/m2
04:02 48.0 °F 38.0 °F 29.90 in Calm   6.0 mph 68% 0.00 in 0.00 W/m2
04:07 47.9 °F 37.9 °F 29.90 in ESE 4.0 mph 7.0 mph 68% 0.00 in 0.00 W/m2
04:12 47.8 °F 38.1 °F 29.90 in ESE 1.0 mph 5.0 mph 69% 0.00 in 0.00 W/m2
04:17 47.8 °F 38.5 °F 29.90 in Calm   4.0 mph 70% 0.00 in 0.00 W/m2
04:22 47.7 °F 38.0 °F 29.90 in Calm   1.0 mph 69% 0.00 in 0.00 W/m2
04:27 47.6 °F 38.0 °F 29.90 in Calm   4.0 mph 69% 0.00 in 0.00 W/m2
04:32 47.6 °F 38.0 °F 29.89 in ESE 2.0 mph 6.0 mph 69% 0.00 in 0.00 W/m2
04:37 47.5 °F 38.2 °F 29.89 in Calm   4.0 mph 70% 0.00 in 0.00 W/m2
04:42 47.3 °F 38.0 °F 29.90 in ESE 1.0 mph 7.0 mph 70% 0.00 in 0.00 W/m2
04:47 47.2 °F 37.9 °F 29.90 in ESE 2.0 mph 8.0 mph 70% 0.00 in 0.00 W/m2
04:52 47.1 °F 37.8 °F 29.90 in ESE 4.0 mph 6.0 mph 70% 0.00 in 0.00 W/m2
04:57 47.0 °F 38.1 °F 29.90 in ESE 2.0 mph 7.0 mph 71% 0.00 in 0.00 W/m2
05:02 46.8 °F 37.5 °F 29.90 in ESE 2.0 mph 5.0 mph 70% 0.00 in 0.00 W/m2
05:07 46.7 °F 37.5 °F 29.90 in Calm   7.0 mph 70% 0.00 in 0.00 W/m2
05:13 46.6 °F 37.7 °F 29.90 in ESE 2.0 mph 6.0 mph 71% 0.00 in 0.00 W/m2
05:18 46.6 °F 37.3 °F 29.90 in Calm   6.0 mph 70% 0.00 in 0.00 W/m2
05:23 46.5 °F 37.3 °F 29.90 in ESE 4.0 mph 6.0 mph 70% 0.00 in 0.00 W/m2
05:28 46.4 °F 37.5 °F 29.90 in ESE 6.0 mph 7.0 mph 71% 0.00 in 0.00 W/m2
05:33 46.4 °F 37.5 °F 29.90 in ESE 2.0 mph 4.0 mph 71% 0.00 in 0.00 W/m2
05:38 46.3 °F 37.1 °F 29.90 in ESE 2.0 mph 6.0 mph 70% 0.00 in 0.00 W/m2
05:43 46.3 °F 37.1 °F 29.90 in Calm   5.0 mph 70% 0.00 in 0.00 W/m2
05:48 46.3 °F 37.1 °F 29.90 in Calm   6.0 mph 70% 0.00 in 0.00 W/m2
05:53 46.2 °F 37.0 °F 29.90 in Calm   7.0 mph 70% 0.00 in 0.00 W/m2
05:58 46.1 °F 36.9 °F 29.90 in Calm   7.0 mph 70% 0.00 in 0.00 W/m2
06:03 46.0 °F 36.8 °F 29.90 in East 2.0 mph 6.0 mph 70% 0.00 in 0.00 W/m2
06:08 46.0 °F 37.1 °F 29.91 in ESE 1.0 mph 9.0 mph 71% 0.00 in 0.00 W/m2
06:13 45.9 °F 37.0 °F 29.91 in East 2.0 mph 6.0 mph 71% 0.00 in 0.00 W/m2
06:18 45.8 °F 37.0 °F 29.91 in ESE 6.0 mph 8.0 mph 71% 0.00 in 0.00 W/m2
06:23 45.7 °F 37.2 °F 29.91 in Calm   7.0 mph 72% 0.00 in 0.00 W/m2
06:28 45.6 °F 36.8 °F 29.91 in ESE 6.0 mph 6.0 mph 71% 0.00 in 0.00 W/m2
06:33 45.6 °F 36.8 °F 29.91 in ESE 5.0 mph 9.0 mph 71% 0.00 in 0.00 W/m2
06:38 45.5 °F 36.7 °F 29.91 in ESE 4.0 mph 11.0 mph 71% 0.00 in 0.00 W/m2
06:43 45.5 °F 36.7 °F 29.92 in Calm   6.0 mph 71% 0.00 in 5.00 W/m2
06:48 45.5 °F 36.7 °F 29.92 in East 1.0 mph 9.0 mph 71% 0.00 in 7.00 W/m2
06:53 45.4 °F 36.9 °F 29.92 in Calm   6.0 mph 72% 0.00 in 11.00 W/m2
06:58 45.4 °F 36.6 °F 29.92 in Calm   9.0 mph 71% 0.00 in 12.00 W/m2
07:03 45.4 °F 36.6 °F 29.92 in Calm   11.0 mph 71% 0.00 in 16.00 W/m2
07:08 45.4 °F 36.9 °F 29.91 in Calm   8.0 mph 72% 0.00 in 21.00 W/m2
07:13 45.4 °F 36.6 °F 29.92 in Calm   8.0 mph 71% 0.00 in 28.00 W/m2
07:19 45.4 °F 36.6 °F 29.92 in East 4.0 mph 6.0 mph 71% 0.00 in 42.00 W/m2
07:24 45.4 °F 36.2 °F 29.92 in East 2.0 mph 7.0 mph 70% 0.00 in 58.00 W/m2
07:29 45.4 °F 36.2 °F 29.92 in Calm   4.0 mph 70% 0.00 in 76.00 W/m2
07:34 45.4 °F 36.6 °F 29.93 in East 1.0 mph 4.0 mph 71% 0.00 in 93.00 W/m2
07:39 45.4 °F 36.6 °F 29.93 in East 3.0 mph 5.0 mph 71% 0.00 in 114.00 W/m2
07:44 45.3 °F 36.8 °F 29.93 in Calm   3.0 mph 72% 0.00 in 134.00 W/m2
07:45 45.3 °F 37.2 °F 29.93 in ENE 2.0 mph 3.0 mph 73% 0.00 in 137.00 W/m2
07:50 45.3 °F 36.8 °F 29.94 in Calm   5.0 mph 72% 0.00 in 160.00 W/m2
07:55 45.3 °F 36.8 °F 29.93 in ENE 1.0 mph 7.0 mph 72% 0.00 in 183.00 W/m2
08:00 45.4 °F 36.6 °F 29.94 in ENE 1.0 mph 3.0 mph 71% 0.00 in 206.00 W/m2
08:05 45.6 °F 37.1 °F 29.94 in ENE 1.0 mph 3.0 mph 72% 0.00 in 232.00 W/m2
08:10 45.8 °F 37.7 °F 29.94 in Calm   3.0 mph 73% 0.00 in 250.00 W/m2
08:15 46.0 °F 37.8 °F 29.94 in Calm   4.0 mph 73% 0.00 in 274.00 W/m2
08:20 46.2 °F 38.0 °F 29.95 in Calm   2.0 mph 73% 0.00 in 297.00 W/m2
08:25 46.3 °F 38.1 °F 29.95 in Calm   1.0 mph 73% 0.00 in 320.00 W/m2
08:30 46.5 °F 38.3 °F 29.95 in Calm   4.0 mph 73% 0.00 in 339.00 W/m2
08:35 46.6 °F 38.8 °F 29.95 in Calm     74% 0.00 in 359.00 W/m2
08:40 46.8 °F 39.0 °F 29.95 in Calm     74% 0.00 in 378.00 W/m2
08:45 47.0 °F 39.5 °F 29.95 in Calm   2.0 mph 75% 0.00 in 396.00 W/m2
08:50 47.3 °F 39.8 °F 29.96 in ENE 1.0 mph 1.0 mph 75% 0.00 in 411.00 W/m2
08:55 47.7 °F 40.2 °F 29.96 in Calm   3.0 mph 75% 0.00 in 429.00 W/m2
09:00 47.9 °F 39.7 °F 29.96 in Calm     73% 0.00 in 446.00 W/m2
09:05 48.2 °F 38.9 °F 29.96 in Calm   3.0 mph 70% 0.00 in 464.00 W/m2
09:10 48.5 °F 39.2 °F 29.96 in Calm   2.0 mph 70% 0.00 in 476.00 W/m2
09:15 48.8 °F 38.0 °F 29.96 in Calm     66% 0.00 in 501.00 W/m2
09:20 49.2 °F 39.1 °F 29.96 in Calm   3.0 mph 68% 0.00 in 519.00 W/m2
09:25 49.6 °F 38.7 °F 29.96 in Calm   6.0 mph 66% 0.00 in 536.00 W/m2
09:30 50.2 °F 38.1 °F 29.96 in ENE 2.0 mph 6.0 mph 63% 0.00 in 545.00 W/m2
09:35 50.7 °F 37.8 °F 29.96 in ENE 3.0 mph 6.0 mph 61% 0.00 in 564.00 W/m2
09:40 51.3 °F 37.5 °F 29.96 in ENE 2.0 mph 3.0 mph 59% 0.00 in 578.00 W/m2
09:45 51.7 °F 37.8 °F 29.96 in Calm   3.0 mph 59% 0.00 in 594.00 W/m2
09:50 52.2 °F 37.0 °F 29.96 in East 5.0 mph 8.0 mph 56% 0.00 in 610.00 W/m2
09:55 52.7 °F 34.6 °F 29.96 in Calm   4.0 mph 50% 0.00 in 624.00 W/m2
10:00 53.2 °F 34.5 °F 29.97 in East 2.0 mph 6.0 mph 49% 0.00 in 638.00 W/m2
10:05 53.6 °F 33.9 °F 29.97 in East 1.0 mph 6.0 mph 47% 0.00 in 652.00 W/m2
10:10 54.1 °F 35.9 °F 29.97 in Calm   5.0 mph 50% 0.00 in 666.00 W/m2
10:15 54.4 °F 34.1 °F 29.98 in Calm   4.0 mph 46% 0.00 in 677.00 W/m2
10:20 54.9 °F 36.6 °F 29.98 in East 1.0 mph 1.0 mph 50% 0.00 in 689.00 W/m2
10:25 55.5 °F 35.6 °F 29.98 in NW 1.0 mph 5.0 mph 47% 0.00 in 698.00 W/m2
10:30 56.2 °F 38.3 °F 29.98 in NW 4.0 mph 5.0 mph 51% 0.00 in 708.00 W/m2
10:35 56.9 °F 38.0 °F 29.98 in WNW 1.0 mph 8.0 mph 49% 0.00 in 722.00 W/m2
10:40 57.4 °F 38.4 °F 29.98 in WNW 3.0 mph 5.0 mph 49% 0.00 in 735.00 W/m2
10:45 57.5 °F 36.9 °F 29.98 in NW 6.0 mph 6.0 mph 46% 0.00 in 740.00 W/m2
10:50 57.7 °F 37.1 °F 29.98 in NW 1.0 mph 5.0 mph 46% 0.00 in 756.00 W/m2
10:55 57.9 °F 36.7 °F 29.98 in Calm   5.0 mph 45% 0.00 in 765.00 W/m2
11:00 58.0 °F 36.2 °F 29.98 in WNW 2.0 mph 5.0 mph 44% 0.00 in 782.00 W/m2
11:05 58.2 °F 35.8 °F 29.99 in WNW 2.0 mph 4.0 mph 43% 0.00 in 788.00 W/m2
11:10 58.5 °F 36.1 °F 29.98 in WNW 2.0 mph 5.0 mph 43% 0.00 in 800.00 W/m2
11:15 58.9 °F 34.0 °F 29.99 in WNW 2.0 mph 5.0 mph 39% 0.00 in 810.00 W/m2
11:20 59.3 °F 35.6 °F 29.99 in WNW 4.0 mph 6.0 mph 41% 0.00 in 817.00 W/m2
11:25 59.5 °F 34.5 °F 29.99 in West 2.0 mph 5.0 mph 39% 0.00 in 824.00 W/m2
11:30 59.8 °F 32.8 °F 29.98 in WNW 4.0 mph 7.0 mph 36% 0.00 in 833.00 W/m2
11:35 60.0 °F 33.0 °F 29.98 in West 3.0 mph 6.0 mph 36% 0.00 in 840.00 W/m2
11:40 60.3 °F 32.6 °F 29.98 in West 3.0 mph 6.0 mph 35% 0.00 in 849.00 W/m2
11:45 60.7 °F 33.6 °F 29.98 in Calm   8.0 mph 36% 0.00 in 853.00 W/m2
11:50 61.2 °F 31.9 °F 29.98 in NW 3.0 mph 5.0 mph 33% 0.00 in 865.00 W/m2
11:55 61.7 °F 32.3 °F 29.98 in West 1.0 mph 5.0 mph 33% 0.00 in 881.00 W/m2
12:01 62.1 °F 31.1 °F 29.98 in West 4.0 mph 7.0 mph 31% 0.00 in 861.00 W/m2
12:06 62.7 °F 33.2 °F 29.98 in Calm   12.0 mph 33% 0.00 in 877.00 W/m2
12:11 63.2 °F 34.4 °F 29.98 in Calm   12.0 mph 34% 0.00 in 889.00 W/m2
12:16 63.6 °F 33.2 °F 29.98 in Calm   2.0 mph 32% 0.00 in 893.00 W/m2
12:21 63.8 °F 34.2 °F 29.98 in West 3.0 mph 10.0 mph 33% 0.00 in 879.00 W/m2
12:26 63.8 °F 32.6 °F 29.98 in NW 2.0 mph 7.0 mph 31% 0.00 in 861.00 W/m2
12:31 64.0 °F 34.3 °F 29.97 in Calm   6.0 mph 33% 0.00 in 846.00 W/m2
12:36 64.1 °F 33.7 °F 29.97 in West 5.0 mph 9.0 mph 32% 0.00 in 918.00 W/m2
12:41 64.3 °F 34.6 °F 29.97 in NW 1.0 mph 6.0 mph 33% 0.00 in 905.00 W/m2
12:46 64.5 °F 34.8 °F 29.96 in WNW 1.0 mph 6.0 mph 33% 0.00 in 905.00 W/m2
12:51 64.5 °F 34.8 °F 29.96 in West 1.0 mph 3.0 mph 33% 0.00 in 900.00 W/m2
12:56 64.9 °F 35.1 °F 29.96 in WNW 2.0 mph 6.0 mph 33% 0.00 in 900.00 W/m2
13:01 65.0 °F 34.5 °F 29.95 in WNW 1.0 mph 6.0 mph 32% 0.00 in 900.00 W/m2
13:06 64.8 °F 33.5 °F 29.95 in North 2.0 mph 9.0 mph 31% 0.00 in 898.00 W/m2
13:11 64.8 °F 37.2 °F 29.96 in NNW 3.0 mph 10.0 mph 36% 0.00 in 893.00 W/m2
13:16 64.5 °F 36.3 °F 29.95 in Calm     35% 0.00 in 896.00 W/m2
13:21 64.3 °F 36.8 °F 29.95 in NW 1.0 mph 12.0 mph 36% 0.00 in 889.00 W/m2
13:26 64.0 °F 36.5 °F 29.95 in West 3.0 mph 10.0 mph 36% 0.00 in 898.00 W/m2
13:31 64.0 °F 37.9 °F 29.95 in Calm     38% 0.00 in 896.00 W/m2
13:36 64.1 °F 36.6 °F 29.95 in NW 2.0 mph 2.0 mph 36% 0.00 in 861.00 W/m2
13:41 64.2 °F 36.0 °F 29.95 in Calm     35% 0.00 in 891.00 W/m2
13:46 64.4 °F 38.3 °F 29.95 in NW 2.0 mph 8.0 mph 38% 0.00 in 889.00 W/m2
13:51 64.6 °F 37.1 °F 29.94 in NNW 1.0 mph 2.0 mph 36% 0.00 in 821.00 W/m2
13:56 64.4 °F 36.9 °F 29.95 in NW 3.0 mph 4.0 mph 36% 0.00 in 788.00 W/m2
14:01 64.1 °F 37.3 °F 29.95 in Calm     37% 0.00 in 865.00 W/m2
14:06 64.0 °F 37.2 °F 29.95 in Calm   1.0 mph 37% 0.00 in 830.00 W/m2
14:11 63.9 °F 39.1 °F 29.95 in WNW 1.0 mph 1.0 mph 40% 0.00 in 786.00 W/m2
14:16 63.8 °F 39.0 °F 29.95 in WNW 10.0 mph 10.0 mph 40% 0.00 in 812.00 W/m2
14:21 63.7 °F 39.6 °F 29.95 in Calm   6.0 mph 41% 0.00 in 823.00 W/m2
14:26 63.6 °F 38.9 °F 29.95 in WNW 5.0 mph 7.0 mph 40% 0.00 in 844.00 W/m2
14:31 63.4 °F 39.3 °F 29.95 in NW 5.0 mph 7.0 mph 41% 0.00 in 830.00 W/m2
14:36 63.1 °F 38.4 °F 29.95 in Calm   6.0 mph 40% 0.00 in 824.00 W/m2
14:41 62.7 °F 38.0 °F 29.95 in SW 11.0 mph 11.0 mph 40% 0.00 in 814.00 W/m2
14:46 62.6 °F 37.3 °F 29.95 in Calm   5.0 mph 39% 0.00 in 802.00 W/m2
14:51 62.5 °F 37.2 °F 29.95 in Calm   9.0 mph 39% 0.00 in 791.00 W/m2
14:56 62.5 °F 37.2 °F 29.95 in Calm   5.0 mph 39% 0.00 in 780.00 W/m2
15:01 62.6 °F 37.3 °F 29.95 in NNW 4.0 mph 7.0 mph 39% 0.00 in 752.00 W/m2
15:06 62.7 °F 38.0 °F 29.95 in Calm   10.0 mph 40% 0.00 in 759.00 W/m2
15:11 62.8 °F 37.5 °F 29.95 in Calm   13.0 mph 39% 0.00 in 737.00 W/m2
15:16 62.9 °F 36.9 °F 29.95 in Calm   7.0 mph 38% 0.00 in 731.00 W/m2
15:21 63.0 °F 36.3 °F 29.95 in Calm   10.0 mph 37% 0.00 in 712.00 W/m2
15:26 62.9 °F 36.9 °F 29.95 in WNW 8.0 mph 9.0 mph 38% 0.00 in 729.00 W/m2
15:30 62.9 °F 36.9 °F 29.95 in Calm   16.0 mph 38% 0.00 in 715.00 W/m2
15:35 62.9 °F 37.6 °F 29.95 in Calm   12.0 mph 39% 0.00 in 687.00 W/m2
15:40 62.6 °F 36.0 °F 29.95 in WNW 6.0 mph 12.0 mph 37% 0.00 in 693.00 W/m2
15:45 62.3 °F 35.7 °F 29.95 in NNW 5.0 mph 13.0 mph 37% 0.00 in 642.00 W/m2
15:50 62.2 °F 36.3 °F 29.95 in WNW 6.0 mph 11.0 mph 38% 0.00 in 671.00 W/m2
15:55 62.4 °F 37.1 °F 29.95 in West 9.0 mph 14.0 mph 39% 0.00 in 656.00 W/m2
16:00 62.4 °F 36.5 °F 29.95 in West 3.0 mph 10.0 mph 38% 0.00 in 647.00 W/m2
16:05 62.5 °F 36.6 °F 29.95 in Calm   13.0 mph 38% 0.00 in 626.00 W/m2
16:10 62.7 °F 36.1 °F 29.95 in WNW 2.0 mph 10.0 mph 37% 0.00 in 612.00 W/m2
16:15 62.7 °F 36.1 °F 29.94 in WNW 2.0 mph 11.0 mph 37% 0.00 in 541.00 W/m2
16:20 62.8 °F 36.2 °F 29.94 in WSW 1.0 mph 11.0 mph 37% 0.00 in 573.00 W/m2
16:25 62.6 °F 35.3 °F 29.95 in NW 2.0 mph 11.0 mph 36% 0.00 in 570.00 W/m2
16:30 62.2 °F 34.9 °F 29.95 in NW 6.0 mph 13.0 mph 36% 0.00 in 563.00 W/m2
16:35 62.0 °F 35.5 °F 29.95 in NW 1.0 mph 13.0 mph 37% 0.00 in 513.00 W/m2
16:41 62.0 °F 34.1 °F 29.95 in NW 1.0 mph 12.0 mph 35% 0.00 in 527.00 W/m2
16:46 62.0 °F 34.1 °F 29.95 in NW 6.0 mph 11.0 mph 35% 0.00 in 468.00 W/m2
16:51 61.9 °F 34.0 °F 29.95 in WNW 5.0 mph 13.0 mph 35% 0.00 in 468.00 W/m2
16:56 62.0 °F 34.1 °F 29.95 in WNW 1.0 mph 8.0 mph 35% 0.00 in 450.00 W/m2
17:01 62.0 °F 35.5 °F 29.95 in Calm   7.0 mph 37% 0.00 in 457.00 W/m2
17:06 62.1 °F 34.2 °F 29.95 in West 8.0 mph 9.0 mph 35% 0.00 in 441.00 W/m2
17:11 62.1 °F 34.8 °F 29.95 in Calm   9.0 mph 36% 0.00 in 422.00 W/m2
17:16 62.1 °F 35.5 °F 29.94 in West 7.0 mph 8.0 mph 37% 0.00 in 404.00 W/m2
17:21 62.1 °F 35.5 °F 29.94 in West 5.0 mph 8.0 mph 37% 0.00 in 383.00 W/m2
17:26 62.1 °F 34.8 °F 29.94 in NW 7.0 mph 11.0 mph 36% 0.00 in 367.00 W/m2
17:31 62.0 °F 34.8 °F 29.94 in Calm   10.0 mph 36% 0.00 in 346.00 W/m2
17:36 61.9 °F 34.0 °F 29.94 in WNW 3.0 mph 9.0 mph 35% 0.00 in 332.00 W/m2
17:41 61.8 °F 36.0 °F 29.95 in NW 5.0 mph 8.0 mph 38% 0.00 in 315.00 W/m2
17:46 61.6 °F 34.4 °F 29.95 in West 4.0 mph 10.0 mph 36% 0.00 in 297.00 W/m2
17:51 61.5 °F 35.0 °F 29.95 in West 6.0 mph 6.0 mph 37% 0.00 in 278.00 W/m2
17:56 61.4 °F 32.8 °F 29.95 in Calm     34% 0.00 in 241.00 W/m2
18:01 61.1 °F 34.0 °F 29.95 in WNW 2.0 mph 2.0 mph 36% 0.00 in 250.00 W/m2
18:06 60.8 °F 33.0 °F 29.95 in Calm   1.0 mph 35% 0.00 in 183.00 W/m2
18:11 60.6 °F 33.5 °F 29.96 in Calm   6.0 mph 36% 0.00 in 176.00 W/m2
18:16 60.3 °F 35.3 °F 29.96 in Calm   3.0 mph 39% 0.00 in 156.00 W/m2
18:21 60.0 °F 33.7 °F 29.96 in Calm   1.0 mph 37% 0.00 in 178.00 W/m2
18:26 59.8 °F 34.2 °F 29.96 in Calm   2.0 mph 38% 0.00 in 141.00 W/m2
18:31 59.7 °F 34.7 °F 29.96 in Calm   1.0 mph 39% 0.00 in 97.00 W/m2
18:36 59.6 °F 34.6 °F 29.96 in Calm   2.0 mph 39% 0.00 in 65.00 W/m2
18:41 59.5 °F 37.6 °F 29.96 in Calm     44% 0.00 in 67.00 W/m2
18:46 59.3 °F 39.6 °F 29.96 in Calm     48% 0.00 in 54.00 W/m2
18:51 59.0 °F 39.9 °F 29.96 in Calm     49% 0.00 in 42.00 W/m2
18:56 58.7 °F 39.1 °F 29.96 in Calm     48% 0.00 in 37.00 W/m2
18:57 58.6 °F 39.0 °F 29.97 in Calm     48% 0.00 in 35.00 W/m2
19:02 58.2 °F 39.2 °F 29.97 in Calm     49% 0.00 in 26.00 W/m2
19:07 57.7 °F 39.2 °F 29.96 in NNW 1.0 mph 2.0 mph 50% 0.00 in 21.00 W/m2
19:12 57.1 °F 38.7 °F 29.96 in Calm   2.0 mph 50% 0.00 in 16.00 W/m2
19:17 56.7 °F 38.3 °F 29.96 in NW 2.0 mph 3.0 mph 50% 0.00 in 12.00 W/m2
19:22 56.2 °F 38.3 °F 29.96 in Calm   2.0 mph 51% 0.00 in 7.00 W/m2
19:27 55.8 °F 38.5 °F 29.96 in NNW 1.0 mph 3.0 mph 52% 0.00 in 5.00 W/m2
19:32 55.5 °F 37.7 °F 29.96 in NNW 1.0 mph 2.0 mph 51% 0.00 in 0.00 W/m2
19:37 55.1 °F 36.8 °F 29.96 in Calm   1.0 mph 50% 0.00 in 0.00 W/m2
19:42 54.7 °F 37.4 °F 29.96 in Calm     52% 0.00 in 0.00 W/m2
19:47 54.3 °F 37.5 °F 29.96 in Calm     53% 0.00 in 0.00 W/m2
19:52 53.9 °F 36.7 °F 29.97 in Calm     52% 0.00 in 0.00 W/m2
19:57 53.6 °F 37.4 °F 29.97 in Calm     54% 0.00 in 0.00 W/m2
20:02 53.4 °F 36.7 °F 29.97 in Calm     53% 0.00 in 0.00 W/m2
20:07 53.1 °F 36.4 °F 29.98 in Calm     53% 0.00 in 0.00 W/m2
20:12 52.6 °F 35.5 °F 29.98 in Calm     52% 0.00 in 0.00 W/m2
20:17 52.3 °F 35.7 °F 29.98 in Calm     53% 0.00 in 0.00 W/m2
20:22 52.1 °F 35.5 °F 29.98 in Calm     53% 0.00 in 0.00 W/m2
20:27 51.9 °F 35.3 °F 29.98 in Calm     53% 0.00 in 0.00 W/m2
20:32 51.8 °F 35.2 °F 29.98 in Calm     53% 0.00 in 0.00 W/m2
20:37 51.8 °F 35.2 °F 29.98 in Calm     53% 0.00 in 0.00 W/m2
20:42 51.8 °F 35.7 °F 29.98 in Calm     54% 0.00 in 0.00 W/m2
20:48 51.8 °F 35.7 °F 29.99 in Calm     54% 0.00 in 0.00 W/m2
20:53 51.7 °F 35.1 °F 29.99 in Calm     53% 0.00 in 0.00 W/m2
20:58 51.7 °F 35.1 °F 29.99 in Calm     53% 0.00 in 0.00 W/m2
21:03 51.7 °F 34.7 °F 29.99 in Calm     52% 0.00 in 0.00 W/m2
21:08 51.8 °F 35.2 °F 29.99 in Calm     53% 0.00 in 0.00 W/m2
21:13 51.7 °F 34.7 °F 29.99 in Calm     52% 0.00 in 0.00 W/m2
21:18 51.7 °F 35.1 °F 30.00 in Calm     53% 0.00 in 0.00 W/m2
21:23 51.7 °F 34.7 °F 29.99 in Calm     52% 0.00 in 0.00 W/m2
21:28 51.7 °F 35.6 °F 30.00 in Calm     54% 0.00 in 0.00 W/m2
21:33 51.7 °F 34.7 °F 30.00 in Calm     52% 0.00 in 0.00 W/m2
21:38 51.7 °F 35.1 °F 30.00 in Calm     53% 0.00 in 0.00 W/m2
21:43 51.6 °F 35.5 °F 30.00 in Calm     54% 0.00 in 0.00 W/m2
21:48 51.6 °F 34.6 °F 30.00 in Calm     52% 0.00 in 0.00 W/m2
21:53 51.5 °F 35.0 °F 30.00 in Calm     53% 0.00 in 0.00 W/m2
21:58 51.5 °F 35.0 °F 30.00 in Calm     53% 0.00 in 0.00 W/m2
22:03 51.4 °F 34.9 °F 30.00 in Calm     53% 0.00 in 0.00 W/m2
22:08 51.4 °F 34.9 °F 30.00 in Calm     53% 0.00 in 0.00 W/m2
22:13 51.3 °F 34.8 °F 30.00 in Calm     53% 0.00 in 0.00 W/m2
22:18 51.2 °F 35.1 °F 30.00 in NE 1.0 mph 3.0 mph 54% 0.00 in 0.00 W/m2
22:23 51.2 °F 35.6 °F 30.00 in ENE 1.0 mph 3.0 mph 55% 0.00 in 0.00 W/m2
22:28 51.1 °F 35.5 °F 30.00 in Calm   3.0 mph 55% 0.00 in 0.00 W/m2
22:33 51.0 °F 36.3 °F 30.00 in ENE 4.0 mph 4.0 mph 57% 0.00 in 0.00 W/m2
22:38 50.9 °F 36.2 °F 30.00 in East 1.0 mph 4.0 mph 57% 0.00 in 0.00 W/m2
22:43 50.9 °F 36.2 °F 30.00 in East 1.0 mph 5.0 mph 57% 0.00 in 0.00 W/m2
22:48 50.8 °F 36.6 °F 30.00 in East 2.0 mph 6.0 mph 58% 0.00 in 0.00 W/m2
22:53 50.7 °F 36.9 °F 30.00 in Calm   8.0 mph 59% 0.00 in 0.00 W/m2
22:58 50.6 °F 37.2 °F 29.99 in East 1.0 mph 5.0 mph 60% 0.00 in 0.00 W/m2
23:03 50.5 °F 37.6 °F 29.99 in Calm   5.0 mph 61% 0.00 in 0.00 W/m2
23:08 50.5 °F 37.2 °F 30.00 in East 4.0 mph 6.0 mph 60% 0.00 in 0.00 W/m2
23:13 50.5 °F 36.7 °F 30.00 in Calm   5.0 mph 59% 0.00 in 0.00 W/m2
23:18 50.5 °F 36.7 °F 30.00 in East 4.0 mph 5.0 mph 59% 0.00 in 0.00 W/m2
23:23 50.5 °F 37.2 °F 30.00 in Calm   9.0 mph 60% 0.00 in 0.00 W/m2
23:28 50.5 °F 37.6 °F 30.00 in East 1.0 mph 4.0 mph 61% 0.00 in 0.00 W/m2
23:33 50.5 °F 37.6 °F 30.00 in Calm   6.0 mph 61% 0.00 in 0.00 W/m2
23:39 50.5 °F 37.2 °F 30.00 in ESE 1.0 mph 4.0 mph 60% 0.00 in 0.00 W/m2
23:44 50.5 °F 37.6 °F 30.00 in East 2.0 mph 7.0 mph 61% 0.00 in 0.00 W/m2
23:49 50.6 °F 37.7 °F 30.00 in East 1.0 mph 6.0 mph 61% 0.00 in 0.00 W/m2
23:54 50.6 °F 37.7 °F 30.00 in East 4.0 mph 7.0 mph 61% 0.00 in 0.00 W/m2
23:59 50.6 °F 37.7 °F 30.00 in Calm   5.0 mph 61% 0.00 in 0.00 W/m2
Foresthill Weather
 WU-history PHP script courtesy of   Juneau County Weather.
powered by Cumulus v1.9.3 (1059)
Ambient Weather VWS v14.00
Top Contact Website Map Copyright © 2007 - 2018 Foresthillweather.com Never base important decisions on this or any weather information obtained from the Internet